Location: Unspecified
(0.0000°N, 0.0000°E)
Time: 02:39:23
(UTC+02:00)

HO-68 - Visible Passes

Search period start: 20 April 2014 00:00
Search period end: 30 April 2014 00:00
Orbit: 1193 x 1204 km, 100.3° (Epoch: 19 April)

Date Brightness Start Highest point End Pass type
(mag) Time Alt. Az. Time Alt. Az. Time Alt. Az.
20 Apr ? 23:09:41 13° NNW 23:09:41 13° NNW 23:10:21 10° NNW visible
21 Apr ? 22:52:27 15° N 22:52:27 15° N 22:53:25 10° N visible
22 Apr ? 22:35:13 15° N 22:35:13 15° N 22:36:16 10° N visible
23 Apr ? 22:17:59 14° NNE 22:17:59 14° NNE 22:18:52 10° NNE visible
24 Apr ? 22:00:45 11° NNE 22:00:45 11° NNE 22:01:09 10° NNE visible
25 Apr ? 23:32:58 12° NNW 23:32:58 12° NNW 23:33:21 10° NNW visible
26 Apr ? 23:15:44 15° NNW 23:15:44 15° NNW 23:16:42 10° NNW visible
27 Apr ? 22:58:30 17° N 22:58:30 17° N 22:59:51 10° N visible
28 Apr ? 22:41:16 17° N 22:41:16 17° N 22:42:47 10° N visible
29 Apr ? 22:24:02 16° NNE 22:24:02 16° NNE 22:25:30 10° N visible
